| time (UTC) | temp C | wind direction | speed KPH | gust KPH | rain 1hr cm | rain 24hr cm | rain mn cm | humidity % | barometer mb |
| 20260902235037 | 21 | 127 | 6.4 | 16.1 | 0.00 | 0.00 | 0.00 | 71 | 1006.7 |
| 20260902234037 | 21 | 46 | 11.3 | 17.7 | 0.00 | 0.00 | 0.00 | 72 | 1006.7 |
| 20260902233037 | 21 | 80 | 6.4 | 16.1 | 0.00 | 0.00 | 0.00 | 72 | 1007.0 |
| 20260902232037 | 20 | 53 | 6.4 | 16.1 | 0.00 | 0.00 | 0.00 | 74 | 1007.4 |
| 20260902231037 | 20 | 76 | 12.9 | 16.1 | 0.00 | 0.00 | 0.00 | 75 | 1007.4 |
| 20260902230037 | 20 | 56 | 4.8 | 8.0 | 0.00 | 0.00 | 0.00 | 74 | 1007.3 |
| 20260902225037 | 20 | 101 | 1.6 | 8.0 | 0.00 | 0.00 | 0.00 | 74 | 1007.4 |
| 20260902224037 | 20 | 83 | 3.2 | 6.4 | 0.00 | 0.00 | 0.00 | 73 | 1007.3 |
| 20260902223037 | 20 | 64 | 8.0 | 11.3 | 0.00 | 0.00 | 0.00 | 73 | 1007.5 |
| 20260902222037 | 20 | 40 | 4.8 | 8.0 | 0.00 | 0.00 | 0.00 | 73 | 1007.2 |
| 20260902221037 | 20 | 78 | 6.4 | 9.7 | 0.00 | 0.00 | 0.00 | 72 | 1007.5 |
| 20260902220037 | 21 | 81 | 3.2 | 8.0 | 0.00 | 0.00 | 0.00 | 71 | 1007.4 |
| 20260902215037 | 21 | 81 | 3.2 | 6.4 | 0.00 | 0.00 | 0.00 | 70 | 1007.4 |
| 20260902214037 | 21 | 71 | 3.2 | 4.8 | 0.00 | 0.00 | 0.00 | 70 | 1007.3 |
| 20260902213037 | 21 | 38 | 4.8 | 8.0 | 0.00 | 0.00 | 0.00 | 68 | 1007.3 |
| 20260902212037 | 21 | 32 | 6.4 | 6.4 | 0.00 | 0.00 | 0.00 | 70 | 1007.1 |
| 20260902211037 | 21 | 61 | 3.2 | 6.4 | 0.00 | 0.00 | 0.00 | 69 | 1007.3 |
| 20260902210037 | 21 | 62 | 3.2 | 4.8 | 0.00 | 0.00 | 0.00 | 69 | 1007.2 |
| 20260902205036 | 21 | 59 | 3.2 | 6.4 | 0.00 | 0.05 | 0.00 | 70 | 1007.2 |
| 20260902204037 | 21 | 84 | 3.2 | 4.8 | 0.00 | 0.05 | 0.00 | 70 | 1007.2 |
| 20260902203037 | 21 | 69 | 3.2 | 6.4 | 0.00 | 0.05 | 0.00 | 69 | 1007.2 |
| 20260902202037 | 21 | 72 | 4.8 | 6.4 | 0.00 | 0.05 | 0.00 | 69 | 1007.3 |
| 20260902201037 | 21 | 60 | 4.8 | 6.4 | 0.00 | 0.05 | 0.00 | 68 | 1007.1 |
| 20260902200037 | 21 | 73 | 3.2 | 6.4 | 0.00 | 0.05 | 0.00 | 68 | 1007.2 |
| 20260902195036 | 21 | 71 | 3.2 | 9.7 | 0.00 | 0.05 | 0.00 | 68 | 1007.1 |
| 20260902194036 | 21 | 20 | 3.2 | 6.4 | 0.00 | 0.05 | 0.00 | 67 | 1007.2 |
| 20260902193037 | 21 | 65 | 1.6 | 4.8 | 0.00 | 0.05 | 0.00 | 67 | 1007.2 |
| 20260902192037 | 22 | 67 | 3.2 | 6.4 | 0.00 | 0.05 | 0.00 | 66 | 1007.2 |
| 20260902191037 | 22 | 32 | 4.8 | 6.4 | 0.00 | 0.05 | 0.00 | 66 | 1007.3 |
| 20260902190037 | 22 | 56 | 4.8 | 6.4 | 0.00 | 0.05 | 0.00 | 65 | 1007.1 |
| 20260902185037 | 22 | 34 | 1.6 | 8.0 | 0.00 | 0.05 | 0.00 | 64 | 1007.1 |
| 20260902184037 | 22 | 51 | 1.6 | 9.7 | 0.00 | 0.05 | 0.00 | 63 | 1007.2 |
| 20260902183037 | 22 | 69 | 3.2 | 6.4 | 0.00 | 0.05 | 0.00 | 62 | 1007.1 |
| 20260902182037 | 23 | 52 | 3.2 | 6.4 | 0.00 | 0.05 | 0.00 | 62 | 1007.0 |
| 20260902181037 | 23 | 59 | 3.2 | 9.7 | 0.00 | 0.05 | 0.00 | 62 | 1007.1 |
| 20260902180037 | 23 | 12 | 8.0 | 8.0 | 0.00 | 0.05 | 0.00 | 61 | 1007.0 |
| 20260902175036 | 23 | 41 | 6.4 | 11.3 | 0.00 | 0.05 | 0.00 | 61 | 1006.9 |
| 20260902174036 | 24 | 70 | 3.2 | 12.9 | 0.00 | 0.05 | 0.00 | 60 | 1006.9 |
| 20260902173037 | 25 | 61 | 6.4 | 8.0 | 0.00 | 0.05 | 0.00 | 58 | 1006.7 |
| 20260902172037 | 26 | 19 | 9.7 | 11.3 | 0.00 | 0.05 | 0.00 | 55 | 1006.5 |
| 20260902171036 | 26 | 20 | 3.2 | 6.4 | 0.00 | 0.05 | 0.00 | 52 | 1006.6 |
| 20260902170036 | 27 | 44 | 1.6 | 6.4 | 0.00 | 0.05 | 0.00 | 50 | 1006.2 |
| 20260902165037 | 27 | 13 | 1.6 | 4.8 | 0.00 | 0.05 | 0.00 | 49 | 1006.1 |
| 20260902164037 | 27 | 82 | 4.8 | 6.4 | 0.00 | 0.05 | 0.00 | 48 | 1006.0 |
| 20260902163037 | 28 | 53 | 4.8 | 6.4 | 0.00 | 0.05 | 0.00 | 47 | 1005.8 |
| 20260902162037 | 28 | 355 | 6.4 | 8.0 | 0.00 | 0.05 | 0.00 | 48 | 1005.8 |
| 20260902161037 | 28 | 45 | 4.8 | 6.4 | 0.00 | 0.05 | 0.00 | 46 | 1005.8 |
| 20260902160036 | 29 | 29 | 6.4 | 6.4 | 0.00 | 0.05 | 0.00 | 42 | 1005.8 |
| 20260902155037 | 29 | 276 | 0.0 | 3.2 | 0.00 | 0.05 | 0.00 | 42 | 1005.8 |
| 20260902154037 | 29 | 64 | 4.8 | 6.4 | 0.00 | 0.05 | 0.00 | 42 | 1005.8 |
| 20260902153037 | 29 | 17 | 3.2 | 4.8 | 0.00 | 0.05 | 0.00 | 42 | 1005.8 |
| 20260902152036 | 29 | 329 | 0.0 | 3.2 | 0.00 | 0.05 | 0.00 | 42 | 1005.9 |
| 20260902151036 | 29 | 32 | 0.0 | 1.6 | 0.00 | 0.05 | 0.00 | 42 | 1006.0 |
| 20260902150037 | 30 | 338 | 1.6 | 3.2 | 0.00 | 0.05 | 0.00 | 42 | 1006.1 |
| 20260902145037 | 30 | 14 | 3.2 | 6.4 | 0.00 | 0.05 | 0.00 | 41 | 1006.1 |
| 20260902144805 | 30 | 325 | 3.2 | 8.0 | 0.00 | 0.05 | 0.00 | 40 | 1006.1 |
| 20260902143806 | 30 | 347 | 3.2 | 9.7 | 0.00 | 0.05 | 0.00 | 40 | 1006.1 |
| 20260902142805 | 30 | 59 | 1.6 | 4.8 | 0.00 | 0.05 | 0.00 | 40 | 1006.3 |
| 20260902141805 | 30 | 312 | 3.2 | 6.4 | 0.00 | 0.05 | 0.00 | 40 | 1006.0 |
| 20260902140805 | 30 | 296 | 3.2 | 9.7 | 0.00 | 0.05 | 0.00 | 40 | 1006.3 |
| 20260902135805 | 31 | 306 | 4.8 | 4.8 | 0.00 | 0.05 | 0.00 | 40 | 1006.4 |
| 20260902134805 | 30 | 28 | 3.2 | 6.4 | 0.00 | 0.05 | 0.00 | 40 | 1006.4 |
| 20260902133805 | 31 | 204 | 0.0 | 4.8 | 0.00 | 0.05 | 0.00 | 39 | 1006.7 |
| 20260902132805 | 31 | 310 | 0.0 | 4.8 | 0.00 | 0.05 | 0.00 | 40 | 1006.4 |
| 20260902131805 | 30 | 27 | 4.8 | 9.7 | 0.00 | 0.05 | 0.00 | 40 | 1006.9 |
| 20260902130805 | 31 | 334 | 4.8 | 8.0 | 0.00 | 0.05 | 0.00 | 38 | 1006.7 |
| 20260902125805 | 32 | 290 | 1.6 | 4.8 | 0.00 | 0.05 | 0.00 | 38 | 1006.8 |
| 20260902124806 | 32 | 255 | 1.6 | 4.8 | 0.00 | 0.05 | 0.00 | 38 | 1007.0 |
| 20260902123805 | 31 | 255 | 1.6 | 3.2 | 0.00 | 0.05 | 0.00 | 39 | 1007.1 |
| 20260902122805 | 31 | 303 | 4.8 | 9.7 | 0.00 | 0.05 | 0.00 | 40 | 1007.3 |
| 20260902121805 | 31 | 272 | 1.6 | 4.8 | 0.00 | 0.05 | 0.00 | 41 | 1007.3 |
| 20260902120805 | 30 | 284 | 3.2 | 9.7 | 0.00 | 0.05 | 0.00 | 40 | 1007.4 |
| 20260902115805 | 30 | 316 | 3.2 | 4.8 | 0.00 | 0.05 | 0.00 | 42 | 1007.5 |
| 20260902114805 | 30 | 38 | 6.4 | 11.3 | 0.00 | 0.05 | 0.00 | 42 | 1007.9 |
| 20260902113805 | 30 | 267 | 3.2 | 8.0 | 0.00 | 0.05 | 0.00 | 42 | 1007.8 |
| 20260902112805 | 30 | 308 | 0.0 | 4.8 | 0.00 | 0.05 | 0.00 | 42 | 1008.0 |
| 20260902111805 | 30 | 169 | 1.6 | 12.9 | 0.00 | 0.05 | 0.00 | 42 | 1008.0 |
| 20260902110805 | 30 | 142 | 0.0 | 6.4 | 0.00 | 0.05 | 0.00 | 43 | 1008.3 |
| 20260902105806 | 30 | 290 | 3.2 | 4.8 | 0.00 | 0.05 | 0.00 | 44 | 1008.2 |
| 20260902104805 | 29 | 276 | 0.0 | 8.0 | 0.00 | 0.05 | 0.00 | 45 | 1008.2 |
| 20260902103805 | 29 | 240 | 0.0 | 3.2 | 0.00 | 0.05 | 0.00 | 45 | 1008.5 |
| 20260902102805 | 28 | 23 | 3.2 | 6.4 | 0.00 | 0.05 | 0.00 | 45 | 1008.5 |
| 20260902101805 | 28 | 25 | 4.8 | 6.4 | 0.00 | 0.05 | 0.00 | 46 | 1008.4 |
| 20260902100805 | 28 | 290 | 0.0 | 9.7 | 0.00 | 0.05 | 0.00 | 46 | 1008.8 |
| 20260902095805 | 28 | 353 | 3.2 | 16.1 | 0.00 | 0.05 | 0.00 | 48 | 1008.6 |
| 20260902094805 | 28 | 96 | 3.2 | 11.3 | 0.00 | 0.05 | 0.00 | 49 | 1008.8 |
| 20260902093805 | 27 | 74 | 3.2 | 8.0 | 0.00 | 0.05 | 0.00 | 49 | 1008.8 |
| 20260902092805 | 27 | 82 | 0.0 | 14.5 | 0.00 | 0.05 | 0.00 | 49 | 1008.7 |
| 20260902091805 | 27 | 89 | 0.0 | 11.3 | 0.00 | 0.05 | 0.00 | 50 | 1009.0 |
| 20260902090805 | 27 | 89 | 0.0 | 6.4 | 0.00 | 0.05 | 0.00 | 51 | 1009.0 |
| 20260902085805 | 26 | 15 | 3.2 | 16.1 | 0.00 | 0.05 | 0.00 | 52 | 1009.0 |
| 20260902084805 | 27 | 321 | 3.2 | 9.7 | 0.00 | 0.05 | 0.00 | 52 | 1008.9 |
| 20260902083805 | 26 | 2 | 6.4 | 17.7 | 0.00 | 0.05 | 0.00 | 53 | 1009.0 |
| 20260902082805 | 26 | 36 | 4.8 | 12.9 | 0.00 | 0.05 | 0.00 | 53 | 1009.2 |
| 20260902081805 | 26 | 111 | 4.8 | 6.4 | 0.00 | 0.05 | 0.00 | 54 | 1009.2 |
| 20260902075805 | 25 | 25 | 6.4 | 17.7 | 0.00 | 0.05 | 0.00 | 57 | 1009.1 |
| 20260902074805 | 25 | 88 | 4.8 | 9.7 | 0.00 | 0.05 | 0.00 | 57 | 1009.2 |
| 20260902073805 | 24 | 101 | 4.8 | 17.7 | 0.00 | 0.05 | 0.00 | 59 | 1009.2 |
| 20260902072805 | 24 | 57 | 17.7 | 17.7 | 0.00 | 0.05 | 0.00 | 60 | 1008.8 |
| 20260902071805 | 23 | 75 | 4.8 | 14.5 | 0.00 | 0.05 | 0.00 | 63 | 1009.0 |
| 20260902070805 | 23 | 32 | 4.8 | 9.7 | 0.00 | 0.05 | 0.00 | 62 | 1009.1 |
| 20260902065805 | 23 | 75 | 3.2 | 12.9 | 0.00 | 0.05 | 0.00 | 63 | 1009.1 |
| 20260902064805 | 23 | 7 | 4.8 | 9.7 | 0.00 | 0.05 | 0.00 | 65 | 1009.0 |
| 20260902063805 | 23 | 73 | 4.8 | 8.0 | 0.00 | 0.05 | 0.00 | 67 | 1009.1 |
| 20260902061805 | 22 | 67 | 9.7 | 9.7 | 0.00 | 0.05 | 0.00 | 69 | 1008.8 |
| 20260902060805 | 22 | 73 | 8.0 | 8.0 | 0.00 | 0.05 | 0.00 | 70 | 1008.8 |
| 20260902055805 | 22 | 89 | 3.2 | 8.0 | 0.00 | 0.05 | 0.00 | 70 | 1008.9 |
| 20260902054805 | 22 | 92 | 3.2 | 6.4 | 0.00 | 0.05 | 0.00 | 71 | 1008.8 |
| 20260902053805 | 21 | 165 | 1.6 | 9.7 | 0.00 | 0.05 | 0.00 | 73 | 1008.9 |
| 20260902052805 | 20 | 85 | 3.2 | 6.4 | 0.00 | 0.05 | 0.00 | 76 | 1009.0 |
| 20260902051805 | 20 | 89 | 3.2 | 8.0 | 0.00 | 0.05 | 0.00 | 76 | 1009.1 |
| 20260902050805 | 20 | 82 | 3.2 | 11.3 | 0.00 | 0.05 | 0.00 | 77 | 1008.9 |
| 20260902045805 | 20 | 51 | 6.4 | 11.3 | 0.00 | 0.05 | 0.00 | 76 | 1008.7 |
| 20260902044805 | 20 | 82 | 3.2 | 9.7 | 0.00 | 0.05 | 0.00 | 76 | 1008.7 |
| 20260902043805 | 20 | 32 | 6.4 | 9.7 | 0.00 | 0.05 | 0.00 | 76 | 1008.7 |
| 20260902042805 | 20 | 80 | 3.2 | 9.7 | 0.00 | 0.05 | 0.00 | 77 | 1008.5 |
| 20260902041805 | 20 | 86 | 4.8 | 9.7 | 0.00 | 0.05 | 0.00 | 77 | 1008.6 |
| 20260902040805 | 20 | 48 | 6.4 | 8.0 | 0.00 | 0.05 | 0.00 | 76 | 1008.6 |
| 20260902035805 | 20 | 61 | 3.2 | 8.0 | 0.00 | 0.03 | 0.00 | 76 | 1008.7 |
| 20260902034805 | 20 | 61 | 1.6 | 4.8 | 0.03 | 0.03 | 0.00 | 76 | 1008.6 |
| 20260902033805 | 20 | 74 | 3.2 | 8.0 | 0.03 | 0.03 | 0.00 | 77 | 1008.4 |
| 20260902032805 | 20 | 24 | 4.8 | 8.0 | 0.03 | 0.03 | 0.00 | 77 | 1008.3 |
| 20260902031805 | 20 | 62 | 6.4 | 9.7 | 0.03 | 0.03 | 0.00 | 76 | 1008.2 |
| 20260902030805 | 20 | 97 | 3.2 | 9.7 | 0.03 | 0.03 | 0.00 | 76 | 1008.0 |
| 20260902025805 | 20 | 63 | 6.4 | 8.0 | 0.00 | 0.00 | 0.00 | 77 | 1008.1 |
| 20260902024805 | 21 | 69 | 3.2 | 6.4 | 0.00 | 0.00 | 0.00 | 73 | 1008.6 |
| 20260902023805 | 21 | 67 | 3.2 | 6.4 | 0.00 | 0.00 | 0.00 | 72 | 1008.3 |
| 20260902022805 | 21 | 47 | 6.4 | 11.3 | 0.00 | 0.00 | 0.00 | 71 | 1008.2 |
| 20260902021805 | 21 | 45 | 4.8 | 8.0 | 0.00 | 0.00 | 0.00 | 71 | 1008.1 |
| 20260902020805 | 21 | 233 | 1.6 | 9.7 | 0.00 | 0.00 | 0.00 | 71 | 1007.9 |
| 20260902015805 | 21 | 62 | 4.8 | 6.4 | 0.00 | 0.00 | 0.00 | 71 | 1007.8 |
| 20260902014805 | 21 | 85 | 3.2 | 11.3 | 0.00 | 0.00 | 0.00 | 72 | 1007.7 |
| 20260902013805 | 21 | 11 | 3.2 | 8.0 | 0.00 | 0.00 | 0.00 | 72 | 1007.7 |
| 20260902012805 | 21 | 13 | 8.0 | 8.0 | 0.00 | 0.00 | 0.00 | 71 | 1007.6 |
| 20260902011805 | 21 | 23 | 4.8 | 11.3 | 0.00 | 0.00 | 0.00 | 71 | 1007.7 |
| 20260902010805 | 21 | 14 | 3.2 | 11.3 | 0.00 | 0.00 | 0.00 | 70 | 1007.9 |
| 20260902010716 | 21 | 17 | 4.8 | 11.3 | 0.00 | 0.00 | 0.00 | 70 | 1007.8 |
| 20260902005716 | 21 | 49 | 6.4 | 11.3 | 0.00 | 0.00 | 0.00 | 70 | 1008.0 |
| 20260902004716 | 21 | 28 | 3.2 | 6.4 | 0.00 | 0.00 | 0.00 | 69 | 1008.0 |
| 20260902003716 | 21 | 43 | 4.8 | 11.3 | 0.00 | 0.00 | 0.00 | 69 | 1007.8 |
| 20260902002716 | 21 | 19 | 3.2 | 11.3 | 0.00 | 0.00 | 0.00 | 69 | 1007.7 |
| 20260902001716 | 21 | 47 | 4.8 | 9.7 | 0.00 | 0.00 | 0.00 | 68 | 1007.7 |
| 20260902000716 | 22 | 179 | 4.8 | 8.0 | 0.00 | 0.00 | 0.00 | 68 | 1007.7 |
| 20260901235716 | 22 | 54 | 3.2 | 6.4 | 0.00 | 0.00 | 0.00 | 68 | 1007.5 |